Meteo Giornale » Osservazioni meteo Stati Uniti (USA) » Franklin
ore: 14:56 - Osservazioni Meteo Franklin
Lat. 41° 23' N Lon. 79° 52' W Alt. 469 metri s.l.m.
26 °C
Coperto
Temp. 24 Ore
18 °C
27 °C
Nord
0 Km/h
Dew point 21 °C
Umidità 73 %
Visibilità 10 Km
Il sole sorge alle ore 06:45
Il sole tramonta alle ore 19:54
| Data e Ora | Cielo e Fenomeni | T °C | DP °C | Um. % | Pres. hPa | Vis. km | Vento km/h | |
|---|---|---|---|---|---|---|---|---|
| Oggi h: 14:56 | Coperto | 26 | 21 | 73 | 1020 | 10 | N 0 | |
| Oggi h: 13:56 | Molto Nuvoloso | 27 | 19 | 61 | 1020 | 10 | O 11.1 | |
| Oggi h: 12:56 | Poco Nuvoloso | 25 | 21 | 78 | 1020 | 10 | O/SO 13 | |
| Oggi h: 11:56 | Molto Nuvoloso | 23 | 20 | 83 | 1021 | 10 | S 14.8 | |
| Oggi h: 10:56 | Poco Nuvoloso | 21 | 19 | 88 | 1021 | 10 | S 14.8 | |
| Oggi h: 09:56 | Nuvoloso | 20 | 18 | 88 | 1021 | 10 | S 11.1 | |
| Oggi h: 08:56 | Coperto | 19 | 18 | 93 | 1021 | 10 | S 14.8 | |
| Oggi h: 07:56 | Coperto | 18 | 18 | 100 | 1021 | 10 | N 5.5 | |
| Oggi h: 06:56 | Coperto | 18 | 17 | 93 | 1020 | 10 | SE 9.3 | |
| Oggi h: 05:56 | Coperto | 18 | 17 | 93 | 1020 | 10 | E/SE 7.4 | |
| Oggi h: 04:56 | Coperto | 18 | 17 | 93 | 1020 | 10 | E/SE 11.1 | |
| Oggi h: 03:56 | Pioggia | 18 | 17 | 93 | 1020 | 10 | N 5.5 | |
| Oggi h: 03:19 | Coperto | 18 | 18 | 100 | 1020 | 10 | E 9.3 | |
| Oggi h: 02:56 | Pioggia Foschia | 18 | 18 | 100 | 1021 | 8 | E/SE 11.1 | |
| Oggi h: 01:56 | Pioggia Foschia | 18 | 18 | 100 | 1021 | 8 | N 5.5 | |
| Oggi h: 01:46 | Pioggia Foschia | 18 | 18 | 100 | 1021 | 8 | N 0 | |
| Oggi h: 01:39 | Pioggia Foschia | 18 | 18 | 100 | 1021 | 2 | N 0 | |
| Oggi h: 01:36 | Pioggia Foschia | 18 | 18 | 100 | 1021 | 2 | N 0 | |
| Oggi h: 01:27 | Pioggia Nebbia | 18 | 18 | 100 | 1021 | 2 | N 0 | |
| Oggi h: 01:18 | Pioggia Foschia | 18 | 18 | 100 | 1021 | 2 | N 5.5 | |
| Oggi h: 00:56 | Pioggia Foschia | 19 | 18 | 93 | 1021 | 10 | E 9.3 | |
| Ieri h: 23:56 | Coperto | 19 | 18 | 93 | 1021 | 10 | SE 7.4 | |
| Ieri h: 22:56 | Coperto | 19 | 18 | 93 | 1022 | 10 | S 7.4 | |
| Ieri h: 21:56 | Coperto | 19 | 18 | 93 | 1022 | 14 | SO 9.3 | |
| Ieri h: 20:56 | Coperto | 19 | 18 | 93 | 1022 | 10 | N 0 | |
| Ieri h: 19:56 | Poco Nuvoloso | 19 | 18 | 93 | 1021 | 10 | N 0 | |
| Ieri h: 18:56 | Poco Nuvoloso | 21 | 17 | 77 | 1020 | 10 | N 5.5 | |
| Ieri h: 17:56 | Molto Nuvoloso | 21 | 17 | 77 | 1020 | 10 | N 0 | |
| Ieri h: 16:56 | Coperto | 22 | 17 | 73 | 1021 | 10 | N 5.5 | |
| Ieri h: 15:56 | Molto Nuvoloso | 22 | 18 | 78 | 1021 | 10 | O 7.4 | |



